EW5191 Weather Reports


Display with metric or nautical units.
time (UTC)temp
F
wind
direction
speed
MPH
gust
MPH
rain 1hr
in
rain 24hr
in
rain mn
in
humidity
%
barometer
mb
20260831163002 70 241 0.0 3.0 0.00 0.00 0.00 32 1014.1
20260831161558 68 130 1.0 3.0 0.00 0.00 0.00 33 1014.1
20260831160055 66 106 0.0 2.0 0.00 0.00 0.00 37 1014.0
20260831154554 64 133 0.0 3.0 0.00 0.00 0.00 36 1014.0
20260831153047 62 187 0.0 3.0 0.00 0.00 0.00 38 1014.1
20260831151548 59 126 1.0 5.0 0.00 0.00 0.00 41 1014.2
20260831150044 58 137 3.0 7.0 0.00 0.00 0.00 42 1014.1
20260831144600 56 117 4.0 7.0 0.00 0.00 0.00 45 1014.1
20260831143042 55 150 2.0 3.0 0.00 0.00 0.00 45 1014.1
20260831141540 54 125 0.0 1.0 0.00 0.00 0.00 46 1014.1
20260831140041 53 284 0.0 0.0 0.00 0.00 0.00 49 1013.8
20260831134538 51 288 0.0 2.0 0.00 0.00 0.00 49 1013.9
20260831133039 49 136 0.0 1.0 0.00 0.00 0.00 53 1013.6
20260831131534 46 156 1.0 2.0 0.00 0.00 0.00 57 1013.4
20260831130033 43 155 0.0 2.0 0.00 0.00 0.00 65 1013.3
20260831124536 42 224 0.0 0.0 0.00 0.00 0.00 69 1013.1
20260831123033 45 125 0.0 1.0 0.00 0.00 0.00 57 1013.1
20260831121540 46 157 4.0 8.0 0.00 0.00 0.00 53 1012.8
20260831120034 45 125 1.0 3.0 0.00 0.00 0.00 62 1012.5
20260831114543 45 128 0.0 1.0 0.00 0.00 0.00 60 1012.3
20260831113021 48 237 0.0 1.0 0.00 0.00 0.00 55 1012.2
20260831111519 45 151 0.0 0.0 0.00 0.00 0.00 60 1012.1
20260831110020 47 177 0.0 0.0 0.00 0.00 0.00 57 1011.9
20260831104527 48 170 0.0 0.0 0.00 0.00 0.00 57 1011.8
20260831103017 48 176 0.0 1.0 0.00 0.00 0.00 56 1011.6
20260831101512 48 227 0.0 0.0 0.00 0.00 0.00 58 1011.4
20260831100010 47 227 0.0 0.0 0.00 0.00 0.00 60 1011.2
20260831094508 45 227 0.0 3.0 0.00 0.00 0.00 66 1010.9
20260831093014 45 173 0.0 1.0 0.00 0.00 0.00 65 1010.6
20260831091502 48 45 1.0 4.0 0.00 0.00 0.00 59 1010.4
20260831090100 51 164 0.0 1.0 0.00 0.00 0.00 56 1010.2
20260831084634 52 26 1.0 4.0 0.00 0.00 0.00 54 1010.3
20260831083055 53 159 0.0 0.0 0.00 0.00 0.00 53 1010.1
20260831081552 54 166 0.0 1.0 0.00 0.00 0.00 52 1010.0
20260831080107 54 49 0.0 1.0 0.00 0.00 0.00 54 1010.1
20260831074600 55 45 0.0 2.0 0.00 0.00 0.00 50 1009.9
20260831073049 56 135 0.0 2.0 0.00 0.00 0.00 48 1009.9
20260831071552 56 151 1.0 3.0 0.00 0.00 0.00 46 1010.0
20260831070045 56 232 0.0 4.0 0.00 0.00 0.00 48 1010.0
20260831064543 55 129 4.0 7.0 0.00 0.00 0.00 52 1009.7
20260831063039 58 165 0.0 4.0 0.00 0.00 0.00 48 1010.0
20260831061540 59 203 1.0 6.0 0.00 0.00 0.00 43 1009.9
20260831060045 60 156 2.0 6.0 0.00 0.00 0.00 46 1010.0
20260831054534 60 108 1.0 3.0 0.00 0.00 0.00 48 1010.0
20260831053036 63 132 0.0 2.0 0.00 0.00 0.00 48 1009.9
20260831051532 65 253 0.0 1.0 0.00 0.00 0.00 46 1009.7
20260831050033 65 201 0.0 1.0 0.00 0.00 0.00 46 1009.8
20260831044532 65 155 0.0 1.0 0.00 0.00 0.00 46 1009.6
20260831043038 64 156 0.0 1.0 0.00 0.00 0.00 46 1009.5
20260831041529 67 41 0.0 2.0 0.00 0.00 0.00 43 1009.4
20260831040028 68 275 0.0 2.0 0.00 0.00 0.00 42 1009.3
20260831034527 68 206 0.0 2.0 0.00 0.00 0.00 39 1009.3
20260831033028 68 264 2.0 4.0 0.00 0.00 0.00 34 1009.1
20260831031533 71 340 3.0 5.0 0.00 0.00 0.00 35 1008.7
20260831030027 71 295 4.0 8.0 0.00 0.00 0.00 26 1008.4
20260831024527 72 250 3.0 7.0 0.00 0.00 0.00 24 1008.2
20260831023026 74 231 7.0 14.0 0.00 0.00 0.00 23 1007.9
20260831021529 76 249 9.0 16.0 0.00 0.00 0.00 22 1007.5
20260831020026 76 253 11.0 16.0 0.00 0.00 0.00 22 1007.2
20260831014523 77 245 11.0 16.0 0.00 0.00 0.00 22 1007.0
20260831013037 78 230 12.0 17.0 0.00 0.00 0.00 22 1006.9
20260831011522 78 215 9.0 16.0 0.00 0.00 0.00 22 1006.8
20260831010022 78 320 0.0 10.0 0.00 0.00 0.00 32 1007.0
20260831004521 79 300 3.0 9.0 0.00 0.00 0.00 31 1006.7
20260831003024 80 38 0.0 9.0 0.00 0.00 0.00 27 1006.6
20260831001525 81 332 9.0 23.0 0.00 0.00 0.00 28 1006.4
20260831000017 83 228 10.0 17.0 0.00 0.00 0.00 20 1006.4
20260830234515 82 263 7.0 17.0 0.00 0.00 0.00 20 1006.4
20260830233013 82 219 11.0 16.0 0.00 0.00 0.00 21 1006.3
20260830231512 83 223 12.0 17.0 0.00 0.00 0.00 20 1006.2
20260830230012 81 13 2.0 8.0 0.00 0.00 0.00 30 1006.4
20260830224515 81 34 1.0 5.0 0.00 0.00 0.00 30 1006.4
20260830223008 80 142 2.0 5.0 0.00 0.00 0.00 33 1006.5
20260830221510 79 128 0.0 8.0 0.00 0.00 0.00 34 1006.6
20260830220004 79 41 7.0 13.0 0.00 0.00 0.00 37 1006.8
20260830214506 78 360 8.0 12.0 0.00 0.02 0.00 39 1007.0
20260830213101 78 19 7.0 11.0 0.00 0.02 0.00 39 1007.1
20260830211558 77 39 8.0 12.0 0.00 0.02 0.00 41 1007.3
20260830210014 77 25 9.0 15.0 0.00 0.02 0.00 40 1007.6